Location: Most
(50.5133°N, 13.6207°E)
Time: 14:25:26
(UTC+02:00)

ISS - Pass Details

Date: 17 September 2017
Orbit: 402 x 407 km, 51.6° (Epoch: 21 September)

Event Time Altitude Azimuth Distance (km) Brightness Sun altitude
Exits shadow 03:39:36 15° 86° (E) 1,186 -1.0 -27.2°
Drops below altitude 10° 03:40:19 10° 88° (E) 1,471 -0.4 -27.1°
Sets 03:42:24 0° 91° (E) 2,331 0.7 -26.9°
